Regional Weather Roundup
Issued by NWS Midland/Odessa, TX

Skip options and go directly to product.
Home | Oldest Version | Previous Version | Current Version | All | Text Only | Save Text | Print | Product List | Glossary Off

Skip product version selection by date and time.   

527
ASUS44 KMAF 301610
RWRMAF
MIDLAND AREA WEATHER ROUNDUP
NATIONAL WEATHER SERVICE MIDLAND TX
1100 AM CDT THU JUL 30 2015

...IN SOUTHWEST TEXAS AND SOUTHEAST NEW MEXICO...

CITY           SKY/WX    TMP DP  RH WIND       PRES   REMARKS
ALPINE         SUNNY     81  55  40 NE5       30.34S
ANDREWS        CLOUDY    85  57  38 NE6       30.24S
ARTESIA        MOSUNNY   79  63  57 N15       30.29S
BIG SPRING     SUNNY     85  59  41 S8        30.22S
CARLSBAD       SUNNY     81  63  54 NW17      30.25S
DRYDEN           N/A     89  65  44 S9        30.14S
FORT STOCKTON  SUNNY     88  57  34 W5        30.20R
GUAD PASS      SUNNY     75  61  61 SW8       30.37S
HOBBS          SUNNY     82  61  47 NE9       30.28S
MARFA          SUNNY     81  54  39 SE3       30.33R
MIDLAND AIRPK  SUNNY     90  56  32 S3        30.21S
MIDLAND INTL   SUNNY     88  59  37 S10       30.20S
ODESSA         SUNNY     89  54  30 S6        30.21S
PECOS          SUNNY     85  55  34 NW9       30.18S
PRESIDIO       FAIR      86  55  34 CALM      30.17S
SEMINOLE       PTSUNNY   84  58  40 NE3       30.26S
SNYDER         SUNNY     85  64  48 SW8       30.20S
WINK           FAIR      89  56  32 SW8       30.18R
$$
...OTHER STATIONS IN TEXAS...

CITY           SKY/WX    TMP DP  RH WIND       PRES   REMARKS
ABILENE        MOSUNNY   89  66  46 SW8       30.17S
AMARILLO       MOSUNNY   78  64  61 NW15G22   30.30S
AUSTIN         MOSUNNY   89  65  44 CALM      30.10S
BROWNSVILLE    MOSUNNY   86  74  67 S7        30.05F
CORPUS CHRISTI PTSUNNY   89  71  55 SW8       30.07S
DALLAS FTW     SUNNY     96  68  39 W3        30.10S HX 101
DEL RIO        SUNNY     88  67  49 SE9       30.09S
EL PASO        CLOUDY    70  65  84 NW13      30.26R
HOUSTON INT    PTSUNNY   91  70  49 W8        30.07R
LUBBOCK        MOSUNNY   83  68  60 N13       30.26S
SAN ANGELO     SUNNY     91  60  35 S6        30.16S
SAN ANTONIO    MOSUNNY   87  70  56 CALM      30.12S
WACO           SUNNY     96  66  37 CALM      30.10R
WICHITA FALLS  NOT AVBL
$$
...OTHER LOCATIONS IN NEW MEXICO...

CITY           SKY/WX    TMP DP  RH WIND       PRES   REMARKS
ALAMAGORDO     MOSUNNY   73  63  68 W3        30.31F
ALBUQUERQUE    PTSUNNY   69  61  75 NW5       30.40S
CANNON AFB     SUNNY     75  63  66 N9        30.32R
CLOVIS         MOSUNNY   77  59  53 N14       30.33R
HOLLOMAN AFB   NOT AVBL
ROSWELL        PTSUNNY   77  62  59 N14       30.29S
RUIDOSO          N/A    N/A N/A N/A MISG        N/A
SANTA FE       CLOUDY    64  58  80 N6        30.45F
TRUTH OR CONSE CLOUDY    69  62  78 CALM      30.35F
TUCUMCARI      PTSUNNY   70  63  78 N6        30.31F
$$

USA.gov is the U.S. government's official web portal to all federal, state and local government web resources and services.